THOR ABLESTAR DEB, 1522

Orbit data source: Space-Track

THOR ABLESTAR DEB, 1522 is space debris in LEO originally from a launch on Fri, 13 Aug 1965 UTC launched from the Air Force Western Test Range (AFWTR). Debris objects in space refer to the collection of defunct objects orbiting the Earth. Examples of debris include non-operational satellites, rocket bodies, and fragments generated from explosions, collisions, or faulty payload assembly.

Loading next visibility...
Identifier
1522, 1965-065L
Orbit
LEO
Last TLE update
11 hours ago
Origin
Manufacturer
Unknown
Mission
Spacecraft
Bus & Motor
Unknown
Mass
Unknown
Launch date (UTC)
1965-08-13 (60 years ago)
Launch vehicle
Unknown
Launch site
Air Force Western Test Range (AFWTR)
Object type
Payload
Rocket body
Debris
Shape & HBR
Unknown
Radar Cross Section
Medium (>0.1 m² and <1 m²)

Expand to show TLE details & history

TLE from 11 hours ago
0 THOR ABLESTAR DEB
1 01522U 65065L   25181.87654076  .00000060  00000-0  10202-3 0  9996
2 01522  90.0911 123.8014 0071807 152.9421 268.1336 13.33820947912964
Epoch: 2025-06-30T21:02Z
TLE epoch observation values (Epoch: 2025-06-30T21:02:13.121Z)
Latitude
60.34201°
Longitude
-111.0925°
Altitude
1,144.882 km
Speed
7.285 km/s
True Right ascension
08h 14m 34s
True Declination
60° 12' 05"
Sunlit
Object was in daylight at epoch
Visualization orbit readout
Latitude
11.77231°
Longitude
69.08978°
Altitude
1,082.828 km
Speed
7.337 km/s
Apparent Right ascension
20h 45m 01s
Apparent Declination
-46° 22' 49"
Sunlit
Object is in full shadow
Visualization observer readout
Local Sidereal Time
20:00:32
Azimuth
172.341° S
Elevation
3.133°
Doppler factor
1
Orbital elements
Apogee altitude
1,183.369 km
Perigee altitude
1,075.549 km
Semi-major axis
7,507.596 km
Eccentricity
0.00718
Inclination
90.0911°
RAAN
123.8014°
Arg. of periapsis
152.9421°
True anomaly
Unknown
Mean anomaly
268.1336°
Eccentric anomaly
Unknown
Mean motion
3.33651 °/min
Orbital period
107.9 mins
BSTAR
0.00010202
Loading maneuver chart data...
Loading SW <> Apogee altitude chart data...
Loading historical data...
Loading historical data...
Loading historical data...
Loading historical data...
Loading historical data...
Loading historical data...
Loading historical data...

THOR ABLESTAR DEB Visibility forecast

Observer location: undefined°, undefined°

Span
Click to sort rows by Start time (UTC) header in descending order
Start Az.
Max El. time (UTC)
Max El. Az.
Max El.
End time (UTC)
End Az.
8 mins2025-07-01 09:57:25.827Z326.997° NNW2025-07-01 10:01:25.827Z285.475° WNW19.754°2025-07-01 10:05:25.827Z245.304° WSW
11 mins2025-07-01 20:15:25.827Z164.458° S2025-07-01 20:20:25.827Z87.482° E43.62°2025-07-01 20:26:25.827Z2.956° NNE
8 mins2025-07-01 22:05:25.827Z248.77° W2025-07-01 22:08:25.827Z277.546° WNW17.766°2025-07-01 22:13:25.827Z324.007° NNW
10 mins2025-07-02 07:33:25.827Z25.339° NE2025-07-02 07:38:25.827Z85.851° E29.739°2025-07-02 07:43:25.827Z144.314° SSE
|